Regional Weather Roundup
Issued by NWS

Home | Current Version | Previous Version | Graphics & Text | Print | Product List | Glossary On
Versions: 1 2 3 4 5 6 7 8 9 10 11 12 13 14 15 16 17 18 19 20 21 22 23 24 25 26 27 28 29 30 31 32 33 34 35 36 37 38 39 40 41 42 43 44 45 46 47 48 49 50
000
ASUS43 KOAX 262110
RWRNE

WEATHER ROUNDUP FOR NEBRASKA
NATIONAL WEATHER SERVICE OMAHA NE
300 PM CST WED NOV 26 2014

NOTES: SATELLITE DATA IS BEING USED TO AUGMENT CLOUD COVER ABOVE
       12000 FEET.
       "FAIR" INDICATES FEW OR NO CLOUDS BELOW 12,000 FEET WITH NO
       SIGNIFICANT WEATHER AND/OR OBSTRUCTIONS TO VISIBILITY.

  * THESE STATIONS DO NOT REPORT WEATHER SUCH AS RAIN...SNOW OR FOG.

NEZ001>004-019>022-054>056-262200-
NEBRASKA PANHANDLE

CITY           SKY/WX    TMP DP  RH WIND       PRES   REMARKS
SCOTTSBLUFF    LGT SNOW  30  28  92 CALM      30.23S VSB 3/4
ALLIANCE       FLURRIES  30  25  81 SW6       30.21F WCI  24
CHADRON        CLOUDY    51  23  33 SW5       30.24S
KIMBALL        CLOUDY    29  24  82 CALM      30.18F
SIDNEY         CLOUDY    30  25  81 CALM      30.23R
$$

NEZ057>060-069>072-079>082-262200-
SOUTHWEST NEBRASKA

CITY           SKY/WX    TMP DP  RH WIND       PRES   REMARKS
NORTH PLATTE   CLOUDY    34  18  52 N10       30.27R WCI  26
IMPERIAL       LGT SNOW  32  24  72 N8        30.28R WCI  25
LEXINGTON      CLOUDY    34  19  54 N13       30.29R WCI  25
MCCOOK         CLOUDY    37  18  46 NW14      30.29R WCI  28
OGALLALA       FLURRIES  34  26  73 NW5       30.27R WCI  29
$$

NEZ005>010-023>029-035>040-094-262200-
NORTH CENTRAL NEBRASKA

CITY           SKY/WX    TMP DP  RH WIND       PRES   REMARKS
VALENTINE      CLOUDY    28  17  63 N8        30.29R WCI  20
AINSWORTH      CLOUDY    25  18  73 NW9       30.29S WCI  16
BROKEN BOW     CLOUDY    31  18  58 N17       30.26S WCI  19
O`NEILL        CLOUDY    25  17  71 N15       30.31R WCI  12
ORD            CLOUDY    29  17  61 NW15G24   30.28R WCI  18
THEDFORD       CLOUDY    31  21  66 NW12      30.27S WCI  22
$$

NEZ041-046>049-061>064-073>077-083>087-262200-
SOUTH CENTRAL NEBRASKA

CITY           SKY/WX    TMP DP  RH WIND       PRES   REMARKS
GRAND ISLAND   CLOUDY    30  18  60 N22       30.28R WCI  17
AURORA         PTSUNNY   32  20  62 N21G28    30.26R WCI  20
HASTINGS       CLOUDY    31  19  61 N20       30.28R WCI  19
HEBRON         PTSUNNY   32  20  60 N18G26    30.26R WCI  21
HOLDREGE       CLOUDY    33  18  53 N17       30.28R WCI  22
KEARNEY *      CLOUDY    30  18  59 NW17      30.29R WCI  18
YORK           PTSUNNY   32  21  64 N16G25    30.25R WCI  21
$$

NEZ011>018-030>034-042>045-262200-
NORTHEAST NEBRASKA

CITY           SKY/WX    TMP DP  RH WIND       PRES   REMARKS
NORFOLK        CLOUDY    25  18  74 NW18      30.27R WCI  11
ALBION         PTSUNNY   28  17  61 N17       30.27R WCI  16
BLAIR          CLOUDY    29  22  74 NW24G32   30.18R WCI  15
COLUMBUS *     CLOUDY    27  16  63 NW21      30.27R WCI  13
FREMONT        CLOUDY    28  21  77 NW18G28   30.24R WCI  15
TEKAMAH        CLOUDY    29  21  72 N28       30.23R WCI  14
WAYNE          CLOUDY    22  17  81 NW21      30.29R WCI   7
$$

NEZ050>053-065>068-078-088>093-262200-
SOUTHEAST NEBRASKA

CITY           SKY/WX    TMP DP  RH WIND       PRES   REMARKS
LINCOLN        CLOUDY    28  18  66 N25G33    30.25R WCI  13
OMAHA EPPLEY   CLOUDY    29  22  75 N23G33    30.20R WCI  15
BEATRICE       CLOUDY    30  21  69 N24G30    30.22R WCI  16
FALLS CITY     CLOUDY    32  23  69 NW23G36   30.14R WCI  19
NEBRASKA CITY  CLOUDY    31  21  66 N23G36    30.16R WCI  17
PLATTSMOUTH    CLOUDY    29  21  70 NW25G32   30.16R WCI  15
$$

NEZ044-045-051>053-067-262200-
OMAHA AREA

CITY           SKY/WX    TMP DP  RH WIND       PRES   REMARKS
OMAHA EPPLEY   CLOUDY    29  22  75 N23G33    30.20R WCI  15
BLAIR          CLOUDY    29  22  74 NW24G32   30.18R WCI  15
FREMONT        CLOUDY    28  21  77 NW18G28   30.24R WCI  15
MILLARD        CLOUDY    29  22  74 NW14G25   30.20R WCI  18
OFFUTT AFB     CLOUDY    30  21  69 NW18G28   30.18R WCI  18
PLATTSMOUTH    CLOUDY    29  21  70 NW25G32   30.16R WCI  15
WAHOO          CLOUDY    27  20  75 NW23G32   30.24R WCI  12
$$


USA.gov is the U.S. government's official web portal to all federal, state and local government web resources and services.